Regional Weather Roundup
Issued by NWS

Home | Current Version | Previous Version | Graphics & Text | Print | Product List | Glossary On
Versions: 1 2 3 4 5 6 7 8 9 10 11 12 13 14 15 16 17 18 19 20 21 22 23 24 25 26 27 28 29 30 31 32 33 34 35 36 37 38 39 40 41 42 43 44 45 46 47 48
000
ASUS45 KCYS 221510
RWRWY

WYOMING REGIONAL WEATHER ROUNDUP
NATIONAL WEATHER SERVICE CHEYENNE WY
800 AM MST MON DEC 22 2014

NOTE:  "FAIR" INDICATES FEW OR NO CLOUDS BELOW 12,000 FEET
WITH NO SIGNIFICANT WEATHER AND/OR OBSTRUCTIONS TO VISIBILITY.

WYZ001-221600-
YELLOWSTONE NATIONAL PARK

CITY           SKY/WX    TMP DP  RH WIND       PRES   REMARKS
LK YELLOWSTONE   N/A     20  15  81 VRB6      29.82S WCI  12
W YELLOWSTONE  NOT AVBL

$$
WYZ002>013-054>058-071-098>099-221600-
NORTHERN WYOMING

CITY           SKY/WX    TMP DP  RH WIND       PRES   REMARKS
JACKSON        LGT SNOW  27  28 100 S9        29.86R BLWGSNOWWCI  17
CODY           FAIR      28  27  93 CALM      29.76F
GREYBULL       CLOUDY    34  29  82 NW18      29.76S WCI  23
WORLAND        LGT SNOW  30  28  92 NW5       29.79R FOG     WCI  25
SHERIDAN       MOCLDY    35  23  61 NW18      29.71S WCI  24
BUFFALO        MOCLDY    33  20  58 NW18G28   29.70S WCI  22
GILLETTE       CLOUDY    31  22  69 W14       29.67R WCI  21
HULETT           N/A    N/A N/A N/A MISG        N/A
NEWCASTLE      FAIR      28  27  93 NW10      29.64F WCI  19

$$
WYZ014>020-022>026-101>103-221600-
CENTRAL WYOMING

CITY           SKY/WX    TMP DP  RH WIND       PRES   REMARKS
BIG PINEY      CLOUDY    22  19  89 W5        29.83S WCI  16
PINEDALE       FLURRIES  18  18 100 CALM      29.83F
DUBOIS         NOT AVBL
LANDER         FAIR      24  12  60 S6        29.74R WCI  17
RIVERTON       FAIR      23  16  74 N6        29.75F WCI  16
CASPER         CLOUDY    26  19  74 W8        29.73F WCI  18
DOUGLAS        FAIR      24  20  84 NW10      29.72S WCI  14

$$
WYZ021-027>030-104>119-221600-
SOUTHERN WYOMING

CITY           SKY/WX    TMP DP  RH WIND       PRES   REMARKS
EVANSTON       LGT SNOW  30  29  96 W13       29.91S FOG     WCI  20
KEMMERER       LGT SNOW  28  27  93 W16       29.87F WCI  17
FORT BRIDGER   FLURRIES  31  30  96 W16G23    29.91S WCI  20
ROCK SPRINGS   MOCLDY    28  22  78 W22G30    29.84S WCI  14
DIXON          CLOUDY    29  25  87 CALM      29.85S
RAWLINS        CLOUDY    26  20  77 W18G28    29.76F WCI  13
SARATOGA       CLOUDY    27  21  80 NW5       29.77F WCI  21
LARAMIE        CLOUDY    25  14  63 W16       29.70F WCI  12
CHEYENNE       FAIR      25  14  63 N10       29.70F WCI  15
TORRINGTON     FAIR     N/A N/A N/A NW6       29.69F
PINE BLUFFS    FAIR      28  23  80 NW16      29.70F WCI  17

$$


USA.gov is the U.S. government's official web portal to all federal, state and local government web resources and services.